Location: Barcelona
(41.3829°N, 2.1774°E)
Time: 12:48:16
(UTC+00:00)

ISS - Pass Details

Date: 23 November 2023
Orbit: 415 x 417 km, 51.6° (Epoch: 08 December)

Event Time Altitude Azimuth Distance (km) Brightness Sun altitude
Rises 17:13:10 0° 270° (W) 2,355 1.6 -8.9°
Reaches altitude 10° 17:15:33 10° 285° (WNW) 1,495 0.0 -9.4°
Maximum altitude 17:18:17 23° 340° (NNW) 949 -1.9 -9.8°
Enters shadow 17:21:00 10° 35° (NE) 1,487 -1.4 -10.3°
